| time (UTC) | temp C | wind direction | speed KPH | gust KPH | rain 1hr cm | rain 24hr cm | rain mn cm | humidity % | barometer mb |
| 20260510061204 | 15 | 188 | 6.4 | 11.3 | 0.00 | 0.20 | 0.03 | 81 | 1012.2 |
| 20260510060603 | 15 | 165 | 1.6 | 9.7 | 0.00 | 0.20 | 0.03 | 82 | 1012.3 |
| 20260510060304 | 15 | 176 | 3.2 | 9.7 | 0.00 | 0.20 | 0.03 | 82 | 1012.1 |
| 20260510060003 | 15 | 189 | 4.8 | 9.7 | 0.00 | 0.20 | 0.03 | 82 | 1012.2 |
| 20260510055704 | 15 | 203 | 6.4 | 9.7 | 0.00 | 0.20 | 0.03 | 83 | 1012.0 |
| 20260510055403 | 15 | 184 | 3.2 | 6.4 | 0.00 | 0.20 | 0.03 | 83 | 1012.0 |
| 20260510054804 | 15 | 222 | 3.2 | 6.4 | 0.00 | 0.20 | 0.03 | 83 | 1012.1 |
| 20260510054203 | 15 | 237 | 3.2 | 4.8 | 0.00 | 0.20 | 0.03 | 82 | 1012.0 |
| 20260510053904 | 15 | 246 | 0.0 | 4.8 | 0.00 | 0.20 | 0.03 | 82 | 1012.1 |
| 20260510053603 | 15 | 237 | 0.0 | 4.8 | 0.00 | 0.20 | 0.03 | 82 | 1012.2 |
| 20260510053304 | 15 | 206 | 1.6 | 6.4 | 0.00 | 0.20 | 0.03 | 82 | 1011.8 |
| 20260510053004 | 15 | 201 | 0.0 | 6.4 | 0.00 | 0.20 | 0.03 | 82 | 1012.0 |
| 20260510052703 | 15 | 205 | 0.0 | 6.4 | 0.00 | 0.20 | 0.03 | 82 | 1011.8 |
| 20260510052404 | 15 | 211 | 3.2 | 6.4 | 0.00 | 0.20 | 0.03 | 81 | 1012.0 |
| 20260510052103 | 15 | 223 | 3.2 | 4.8 | 0.00 | 0.20 | 0.03 | 81 | 1011.8 |
| 20260510051804 | 15 | 211 | 3.2 | 6.4 | 0.00 | 0.20 | 0.03 | 81 | 1011.6 |
| 20260510051504 | 15 | 200 | 1.6 | 6.4 | 0.00 | 0.20 | 0.03 | 81 | 1011.7 |
| 20260510051203 | 15 | 195 | 1.6 | 6.4 | 0.00 | 0.20 | 0.03 | 80 | 1011.5 |
| 20260510050904 | 15 | 188 | 4.8 | 6.4 | 0.00 | 0.20 | 0.03 | 80 | 1011.6 |
| 20260510050603 | 16 | 205 | 1.6 | 6.4 | 0.00 | 0.20 | 0.03 | 80 | 1011.5 |
| 20260510050304 | 16 | 224 | 3.2 | 9.7 | 0.00 | 0.20 | 0.03 | 79 | 1011.4 |
| 20260510050004 | 16 | 214 | 4.8 | 9.7 | 0.00 | 0.20 | 0.03 | 78 | 1011.3 |
| 20260510045703 | 16 | 206 | 3.2 | 9.7 | 0.00 | 0.20 | 0.03 | 78 | 1011.4 |
| 20260510045406 | 16 | 200 | 3.2 | 9.7 | 0.00 | 0.20 | 0.03 | 78 | 1011.0 |
| 20260510044803 | 16 | 212 | 3.2 | 9.7 | 0.00 | 0.20 | 0.03 | 76 | 1011.1 |
| 20260510044504 | 16 | 224 | 3.2 | 14.5 | 0.00 | 0.20 | 0.03 | 76 | 1011.2 |
| 20260510044204 | 16 | 225 | 4.8 | 14.5 | 0.00 | 0.20 | 0.03 | 75 | 1011.1 |
| 20260510043904 | 16 | 224 | 4.8 | 14.5 | 0.00 | 0.20 | 0.03 | 74 | 1011.1 |
| 20260510043603 | 17 | 230 | 11.3 | 19.3 | 0.00 | 0.20 | 0.03 | 72 | 1011.1 |
| 20260510043304 | 17 | 232 | 4.8 | 19.3 | 0.00 | 0.20 | 0.03 | 71 | 1011.2 |
| 20260510043004 | 17 | 220 | 6.4 | 19.3 | 0.00 | 0.20 | 0.03 | 71 | 1011.0 |
| 20260510042704 | 17 | 224 | 6.4 | 19.3 | 0.00 | 0.20 | 0.03 | 71 | 1011.1 |
| 20260510042403 | 17 | 210 | 6.4 | 14.5 | 0.00 | 0.20 | 0.03 | 70 | 1011.1 |
| 20260510042104 | 17 | 212 | 9.7 | 16.1 | 0.00 | 0.20 | 0.03 | 72 | 1011.2 |
| 20260510041804 | 17 | 207 | 6.4 | 16.1 | 0.00 | 0.20 | 0.03 | 72 | 1011.1 |
| 20260510041505 | 17 | 213 | 4.8 | 16.1 | 0.00 | 0.20 | 0.03 | 72 | 1011.0 |
| 20260510041203 | 17 | 227 | 9.7 | 16.1 | 0.00 | 0.20 | 0.03 | 72 | 1011.2 |
| 20260510040904 | 17 | 243 | 6.4 | 16.1 | 0.00 | 0.20 | 0.03 | 72 | 1011.0 |
| 20260510040603 | 17 | 259 | 4.8 | 17.7 | 0.00 | 0.20 | 0.03 | 72 | 1011.1 |
| 20260510040003 | 17 | 297 | 6.4 | 22.5 | 0.00 | 0.20 | 0.03 | 72 | 1011.0 |
| 20260510035704 | 17 | 298 | 9.7 | 22.5 | 0.00 | 0.20 | 0.03 | 72 | 1011.0 |
| 20260510035403 | 17 | 284 | 11.3 | 20.9 | 0.00 | 0.20 | 0.03 | 73 | 1011.1 |
| 20260510035104 | 16 | 244 | 11.3 | 16.1 | 0.00 | 0.20 | 0.03 | 75 | 1011.0 |
| 20260510034803 | 16 | 236 | 4.8 | 17.7 | 0.00 | 0.20 | 0.03 | 74 | 1011.1 |
| 20260510034504 | 16 | 221 | 9.7 | 17.7 | 0.00 | 0.20 | 0.03 | 74 | 1011.0 |
| 20260510034203 | 16 | 206 | 9.7 | 17.7 | 0.00 | 0.20 | 0.03 | 73 | 1011.1 |
| 20260510033904 | 16 | 198 | 8.0 | 17.7 | 0.00 | 0.20 | 0.03 | 73 | 1011.1 |
| 20260510033603 | 16 | 207 | 3.2 | 12.9 | 0.00 | 0.20 | 0.03 | 72 | 1011.2 |
| 20260510033304 | 16 | 220 | 6.4 | 12.9 | 0.00 | 0.20 | 0.03 | 72 | 1011.2 |
| 20260510033004 | 16 | 215 | 6.4 | 12.9 | 0.00 | 0.20 | 0.03 | 73 | 1011.1 |
| 20260510032103 | 17 | 203 | 8.0 | 19.3 | 0.00 | 0.20 | 0.03 | 71 | 1010.9 |
| 20260510031804 | 17 | 201 | 6.4 | 19.3 | 0.00 | 0.20 | 0.03 | 71 | 1011.1 |
| 20260510031504 | 17 | 198 | 11.3 | 19.3 | 0.00 | 0.20 | 0.03 | 70 | 1010.9 |
| 20260510031204 | 17 | 191 | 9.7 | 19.3 | 0.00 | 0.20 | 0.03 | 70 | 1011.2 |
| 20260510030904 | 17 | 178 | 11.3 | 20.9 | 0.00 | 0.20 | 0.03 | 70 | 1011.1 |
| 20260510030303 | 18 | 191 | 12.9 | 20.9 | 0.00 | 0.20 | 0.03 | 65 | 1011.1 |
| 20260510030004 | 19 | 198 | 9.7 | 20.9 | 0.00 | 0.20 | 0.03 | 64 | 1011.1 |
| 20260510025704 | 18 | 210 | 8.0 | 19.3 | 0.00 | 0.20 | 0.03 | 66 | 1011.0 |
| 20260510025403 | 18 | 205 | 8.0 | 19.3 | 0.00 | 0.20 | 0.03 | 65 | 1010.9 |
| 20260510025103 | 18 | 212 | 12.9 | 20.9 | 0.00 | 0.20 | 0.03 | 63 | 1011.0 |
| 20260510024803 | 19 | 198 | 9.7 | 20.9 | 0.00 | 0.20 | 0.03 | 62 | 1011.1 |
| 20260510024504 | 20 | 188 | 8.0 | 20.9 | 0.00 | 0.20 | 0.03 | 61 | 1010.9 |
| 20260510024204 | 20 | 175 | 11.3 | 20.9 | 0.00 | 0.20 | 0.03 | 60 | 1010.8 |
| 20260510023906 | 20 | 191 | 11.3 | 17.7 | 0.00 | 0.20 | 0.03 | 62 | 1010.7 |
| 20260510023604 | 19 | 227 | 6.4 | 17.7 | 0.00 | 0.20 | 0.03 | 61 | 1010.7 |
| 20260510023303 | 19 | 238 | 11.3 | 17.7 | 0.00 | 0.20 | 0.03 | 62 | 1010.8 |
| 20260510023005 | 19 | 230 | 11.3 | 17.7 | 0.00 | 0.20 | 0.03 | 63 | 1010.8 |
| 20260510022703 | 19 | 213 | 12.9 | 17.7 | 0.00 | 0.23 | 0.03 | 63 | 1010.9 |
| 20260510022404 | 18 | 199 | 9.7 | 17.7 | 0.00 | 0.33 | 0.03 | 63 | 1010.8 |
| 20260510020004 | 17 | 193 | 6.4 | 17.7 | 0.00 | 0.64 | 0.03 | 68 | 1010.9 |
| 20260510015703 | 17 | 206 | 12.9 | 17.7 | 0.00 | 0.64 | 0.03 | 67 | 1011.0 |
| 20260510015104 | 18 | 215 | 6.4 | 17.7 | 0.00 | 0.64 | 0.03 | 66 | 1010.7 |
| 20260510014805 | 18 | 209 | 4.8 | 12.9 | 0.00 | 0.64 | 0.03 | 65 | 1010.9 |
| 20260510014504 | 18 | 212 | 9.7 | 12.9 | 0.00 | 0.64 | 0.03 | 67 | 1010.8 |
| 20260510014203 | 18 | 199 | 3.2 | 19.3 | 0.00 | 0.64 | 0.03 | 66 | 1010.8 |
| 20260510013903 | 18 | 206 | 6.4 | 19.3 | 0.00 | 0.64 | 0.03 | 65 | 1011.0 |
| 20260510013603 | 18 | 205 | 6.4 | 19.3 | 0.00 | 0.64 | 0.03 | 64 | 1010.7 |
| 20260510013303 | 18 | 245 | 6.4 | 17.7 | 0.00 | 0.64 | 0.03 | 65 | 1011.0 |
| 20260510012704 | 19 | 269 | 9.7 | 17.7 | 0.00 | 0.64 | 0.03 | 62 | 1010.9 |
| 20260510012404 | 19 | 251 | 4.8 | 17.7 | 0.00 | 0.64 | 0.03 | 62 | 1010.6 |
| 20260510012104 | 19 | 265 | 9.7 | 24.1 | 0.00 | 0.64 | 0.03 | 63 | 1010.8 |
| 20260510011503 | 19 | 274 | 8.0 | 24.1 | 0.00 | 0.64 | 0.03 | 61 | 1010.7 |
| 20260510011204 | 20 | 252 | 6.4 | 17.7 | 0.00 | 0.64 | 0.03 | 62 | 1010.8 |
| 20260510010903 | 19 | 218 | 6.4 | 17.7 | 0.00 | 0.66 | 0.03 | 61 | 1010.9 |
| 20260510010605 | 20 | 209 | 9.7 | 17.7 | 0.00 | 0.66 | 0.03 | 62 | 1011.0 |
| 20260510010004 | 18 | 209 | 6.4 | 12.9 | 0.00 | 0.71 | 0.03 | 65 | 1011.0 |
| 20260510005703 | 18 | 216 | 3.2 | 12.9 | 0.00 | 0.71 | 0.03 | 66 | 1010.9 |
| 20260510005404 | 18 | 206 | 4.8 | 12.9 | 0.00 | 0.86 | 0.03 | 65 | 1010.9 |
| 20260510005105 | 18 | 203 | 0.0 | 9.7 | 0.00 | 0.86 | 0.03 | 64 | 1011.1 |
| 20260510004804 | 18 | 195 | 4.8 | 9.7 | 0.00 | 0.86 | 0.03 | 64 | 1011.2 |
| 20260510004504 | 19 | 193 | 1.6 | 8.0 | 0.00 | 0.86 | 0.03 | 66 | 1011.0 |
| 20260510004204 | 19 | 205 | 1.6 | 6.4 | 0.00 | 0.86 | 0.03 | 69 | 1011.2 |
| 20260510003904 | 18 | 234 | 0.0 | 6.4 | 0.00 | 0.86 | 0.03 | 71 | 1011.4 |
| 20260510003604 | 18 | 283 | 1.6 | 6.4 | 0.00 | 0.86 | 0.03 | 69 | 1011.3 |
| 20260510003304 | 18 | 315 | 4.8 | 6.4 | 0.00 | 0.86 | 0.03 | 69 | 1011.3 |
| 20260510003004 | 18 | 317 | 1.6 | 4.8 | 0.00 | 0.86 | 0.03 | 69 | 1011.4 |
| 20260510002703 | 18 | 318 | 0.0 | 4.8 | 0.00 | 0.86 | 0.03 | 71 | 1011.3 |
| 20260510002404 | 18 | 269 | 1.6 | 4.8 | 0.00 | 0.86 | 0.03 | 71 | 1011.3 |
| 20260510002105 | 18 | 246 | 0.0 | 4.8 | 0.00 | 0.86 | 0.03 | 72 | 1011.4 |
| 20260510001803 | 18 | 220 | 0.0 | 4.8 | 0.00 | 0.86 | 0.03 | 73 | 1011.4 |
| 20260510001505 | 17 | 201 | 1.6 | 4.8 | 0.00 | 0.86 | 0.03 | 74 | 1011.5 |
| 20260510001203 | 17 | 187 | 1.6 | 4.8 | 0.00 | 0.86 | 0.03 | 75 | 1011.5 |
| 20260510000904 | 16 | 179 | 3.2 | 4.8 | 0.00 | 0.86 | 0.03 | 77 | 1011.6 |
| 20260510000603 | 16 | 172 | 3.2 | 4.8 | 0.00 | 0.86 | 0.03 | 76 | 1011.5 |
| 20260510000304 | 16 | 178 | 3.2 | 4.8 | 0.00 | 0.86 | 0.03 | 76 | 1011.7 |
| 20260509235704 | 16 | 171 | 1.6 | 8.0 | 0.00 | 0.86 | 0.03 | 76 | 1011.8 |
| 20260509235103 | 16 | 153 | 1.6 | 8.0 | 0.00 | 0.86 | 0.03 | 75 | 1011.8 |
| 20260509234803 | 16 | 150 | 4.8 | 8.0 | 0.00 | 0.86 | 0.03 | 74 | 1012.1 |
| 20260509234504 | 16 | 148 | 3.2 | 9.7 | 0.00 | 0.86 | 0.03 | 74 | 1012.0 |
| 20260509234203 | 16 | 147 | 4.8 | 9.7 | 0.00 | 0.86 | 0.03 | 74 | 1012.0 |
| 20260509233904 | 16 | 152 | 1.6 | 9.7 | 0.00 | 0.86 | 0.03 | 74 | 1012.0 |
| 20260509233604 | 16 | 151 | 6.4 | 9.7 | 0.00 | 0.86 | 0.03 | 74 | 1012.1 |
| 20260509233304 | 16 | 150 | 3.2 | 11.3 | 0.00 | 0.86 | 0.03 | 74 | 1012.2 |
| 20260509232704 | 16 | 153 | 3.2 | 12.9 | 0.00 | 0.86 | 0.03 | 73 | 1012.2 |
| 20260509232403 | 16 | 149 | 6.4 | 12.9 | 0.00 | 0.86 | 0.03 | 71 | 1012.1 |
| 20260509232104 | 16 | 151 | 6.4 | 12.9 | 0.00 | 0.86 | 0.03 | 69 | 1012.2 |
| 20260509231504 | 18 | 191 | 6.4 | 9.7 | 0.00 | 0.86 | 0.03 | 67 | 1012.2 |
| 20260509230904 | 18 | 246 | 3.2 | 6.4 | 0.00 | 0.86 | 0.03 | 72 | 1012.2 |
| 20260509230606 | 18 | 300 | 0.0 | 6.4 | 0.00 | 0.86 | 0.03 | 73 | 1012.2 |
| 20260509230004 | 16 | 239 | 0.0 | 6.4 | 0.00 | 0.86 | 0.03 | 76 | 1012.3 |
| 20260509225704 | 16 | 167 | 0.0 | 8.0 | 0.00 | 0.86 | 0.03 | 77 | 1012.4 |
| 20260509225404 | 16 | 170 | 1.6 | 8.0 | 0.00 | 0.86 | 0.03 | 77 | 1012.4 |
| 20260509225104 | 15 | 159 | 4.8 | 9.7 | 0.00 | 0.86 | 0.03 | 77 | 1012.5 |
| 20260509224804 | 15 | 156 | 4.8 | 9.7 | 0.00 | 0.86 | 0.03 | 79 | 1012.5 |
| 20260509224504 | 15 | 151 | 3.2 | 9.7 | 0.00 | 0.86 | 0.03 | 79 | 1012.7 |
| 20260509224204 | 16 | 155 | 4.8 | 9.7 | 0.00 | 0.86 | 0.03 | 82 | 1012.6 |
| 20260509223903 | 16 | 194 | 3.2 | 6.4 | 0.00 | 0.86 | 0.03 | 83 | 1012.7 |
| 20260509223303 | 15 | 189 | 1.6 | 6.4 | 0.00 | 0.86 | 0.03 | 87 | 1012.6 |
| 20260509223004 | 16 | 198 | 0.0 | 6.4 | 0.00 | 0.86 | 0.03 | 88 | 1012.7 |
| 20260509222704 | 16 | 188 | 1.6 | 6.4 | 0.00 | 0.86 | 0.03 | 90 | 1012.6 |
| 20260509222404 | 16 | 189 | 1.6 | 6.4 | 0.00 | 0.86 | 0.03 | 91 | 1012.5 |
| 20260509221503 | 16 | 248 | 0.0 | 3.2 | 0.00 | 0.86 | 0.03 | 94 | 1012.6 |
| 20260509221204 | 16 | 248 | 0.0 | 1.6 | 0.00 | 0.86 | 0.03 | 96 | 1012.5 |
| 20260509220904 | 16 | 248 | 0.0 | 1.6 | 0.00 | 0.86 | 0.03 | 97 | 1012.4 |
| 20260509220603 | 16 | 248 | 0.0 | 1.6 | 0.00 | 0.86 | 0.03 | 97 | 1012.6 |
| 20260509220303 | 16 | 0 | 0.0 | 0.0 | 0.00 | 0.86 | 0.03 | 98 | 1012.6 |
| 20260509220004 | 16 | 0 | 0.0 | 0.0 | 0.00 | 0.86 | 0.03 | 98 | 1012.5 |
| 20260509215703 | 15 | 0 | 0.0 | 0.0 | 0.00 | 0.86 | 0.03 | 99 | 1012.6 |
| 20260509215403 | 15 | 0 | 0.0 | 0.0 | 0.00 | 0.86 | 0.03 | 99 | 1012.6 |
| 20260509215104 | 14 | 0 | 0.0 | 0.0 | 0.00 | 0.86 | 0.03 | 99 | 1012.5 |
| 20260509214504 | 12 | 292 | 0.0 | 3.2 | 0.00 | 0.86 | 0.03 | 97 | 1012.6 |
| 20260509214206 | 12 | 292 | 0.0 | 3.2 | 0.00 | 0.86 | 0.03 | 97 | 1012.6 |
| 20260509213904 | 12 | 292 | 0.0 | 3.2 | 0.00 | 0.86 | 0.03 | 97 | 1012.6 |
| 20260509213604 | 12 | 45 | 0.0 | 1.6 | 0.00 | 0.86 | 0.03 | 97 | 1012.8 |
| 20260509213304 | 12 | 45 | 0.0 | 1.6 | 0.00 | 0.86 | 0.03 | 97 | 1012.7 |
| 20260509212704 | 12 | 0 | 0.0 | 0.0 | 0.00 | 0.86 | 0.03 | 97 | 1012.7 |
| 20260509212403 | 12 | 292 | 0.0 | 1.6 | 0.00 | 0.86 | 0.03 | 97 | 1012.7 |
| 20260509212106 | 12 | 348 | 0.0 | 1.6 | 0.00 | 0.86 | 0.03 | 97 | 1012.6 |
| 20260509211803 | 12 | 348 | 0.0 | 1.6 | 0.00 | 0.86 | 0.03 | 97 | 1012.6 |
| 20260509211504 | 12 | 348 | 0.0 | 1.6 | 0.00 | 0.86 | 0.03 | 97 | 1012.6 |
| 20260509211204 | 12 | 45 | 0.0 | 1.6 | 0.00 | 0.86 | 0.03 | 97 | 1012.6 |
| 20260509210903 | 12 | 1 | 0.0 | 1.6 | 0.00 | 0.86 | 0.03 | 97 | 1012.6 |
| 20260509210604 | 12 | 1 | 0.0 | 1.6 | 0.00 | 0.86 | 0.03 | 97 | 1012.6 |
| 20260509210304 | 12 | 1 | 0.0 | 1.6 | 0.00 | 0.86 | 0.03 | 97 | 1012.5 |
| 20260509210004 | 12 | 0 | 0.0 | 0.0 | 0.00 | 0.86 | 0.03 | 97 | 1012.7 |
| 20260509205706 | 11 | 0 | 0.0 | 0.0 | 0.00 | 0.86 | 0.03 | 98 | 1012.6 |
| 20260509205404 | 11 | 0 | 0.0 | 0.0 | 0.00 | 0.86 | 0.03 | 98 | 1012.6 |
| 20260509205103 | 11 | 0 | 0.0 | 0.0 | 0.00 | 0.86 | 0.03 | 99 | 1012.7 |
| 20260509204804 | 10 | 0 | 0.0 | 0.0 | 0.00 | 0.86 | 0.03 | 99 | 1012.7 |
| 20260509204504 | 10 | 0 | 0.0 | 0.0 | 0.00 | 0.86 | 0.03 | 99 | 1012.6 |
| 20260509204204 | 10 | 0 | 0.0 | 0.0 | 0.00 | 0.86 | 0.03 | 99 | 1012.8 |
| 20260509203606 | 10 | 248 | 0.0 | 1.6 | 0.00 | 0.86 | 0.03 | 99 | 1012.5 |
| 20260509203303 | 10 | 248 | 0.0 | 1.6 | 0.00 | 0.86 | 0.03 | 99 | 1012.7 |
| 20260509202705 | 10 | 0 | 0.0 | 0.0 | 0.00 | 0.86 | 0.03 | 99 | 1012.5 |
| 20260509202403 | 10 | 0 | 0.0 | 0.0 | 0.00 | 0.86 | 0.03 | 99 | 1012.5 |
| 20260509202104 | 10 | 0 | 0.0 | 0.0 | 0.00 | 0.86 | 0.03 | 99 | 1012.5 |
| 20260509201503 | 10 | 0 | 0.0 | 0.0 | 0.00 | 0.86 | 0.03 | 99 | 1012.2 |
| 20260509201204 | 10 | 0 | 0.0 | 0.0 | 0.00 | 0.86 | 0.03 | 99 | 1012.2 |
| 20260509200904 | 10 | 0 | 0.0 | 0.0 | 0.00 | 0.86 | 0.03 | 99 | 1012.2 |
| 20260509200604 | 10 | 248 | 0.0 | 1.6 | 0.00 | 0.86 | 0.03 | 99 | 1012.2 |
| 20260509200304 | 10 | 248 | 0.0 | 3.2 | 0.00 | 0.86 | 0.03 | 99 | 1012.1 |
| 20260509200004 | 10 | 236 | 0.0 | 3.2 | 0.00 | 0.86 | 0.03 | 99 | 1012.1 |
| 20260509195704 | 10 | 244 | 0.0 | 3.2 | 0.00 | 0.86 | 0.03 | 99 | 1012.2 |
| 20260509195404 | 10 | 244 | 0.0 | 3.2 | 0.00 | 0.86 | 0.03 | 99 | 1012.1 |
| 20260509195103 | 10 | 244 | 0.0 | 3.2 | 0.00 | 0.86 | 0.03 | 99 | 1012.0 |
| 20260509194804 | 10 | 243 | 1.6 | 3.2 | 0.00 | 0.86 | 0.03 | 99 | 1012.4 |
| 20260509194504 | 10 | 239 | 0.0 | 3.2 | 0.00 | 0.86 | 0.03 | 99 | 1012.1 |
| 20260509194203 | 10 | 206 | 0.0 | 3.2 | 0.00 | 0.86 | 0.03 | 99 | 1012.0 |
| 20260509193603 | 9 | 143 | 0.0 | 3.2 | 0.00 | 0.86 | 0.03 | 99 | 1012.1 |
| 20260509193305 | 9 | 148 | 0.0 | 3.2 | 0.00 | 0.86 | 0.03 | 99 | 1011.9 |
| 20260509193006 | 9 | 191 | 0.0 | 3.2 | 0.00 | 0.86 | 0.03 | 99 | 1012.0 |
| 20260509192705 | 10 | 248 | 0.0 | 3.2 | 0.00 | 0.86 | 0.03 | 99 | 1011.9 |
| 20260509191804 | 10 | 274 | 0.0 | 4.8 | 0.00 | 0.86 | 0.03 | 99 | 1012.0 |
| 20260509191203 | 10 | 135 | 0.0 | 1.6 | 0.00 | 0.86 | 0.03 | 99 | 1011.9 |
| 20260509190904 | 10 | 135 | 0.0 | 1.6 | 0.00 | 0.86 | 0.03 | 99 | 1012.0 |
| 20260509190605 | 10 | 0 | 0.0 | 0.0 | 0.00 | 0.86 | 0.03 | 99 | 1011.8 |
| 20260509190304 | 10 | 0 | 0.0 | 0.0 | 0.00 | 0.86 | 0.03 | 99 | 1011.9 |
| 20260509190004 | 10 | 0 | 0.0 | 0.0 | 0.00 | 0.86 | 0.03 | 99 | 1012.1 |
| 20260509185704 | 10 | 0 | 0.0 | 0.0 | 0.00 | 0.86 | 0.03 | 99 | 1011.8 |
| 20260509185403 | 10 | 0 | 0.0 | 0.0 | 0.00 | 0.86 | 0.03 | 99 | 1011.9 |
| 20260509185106 | 10 | 0 | 0.0 | 0.0 | 0.00 | 0.86 | 0.03 | 99 | 1011.8 |
| 20260509184803 | 10 | 0 | 0.0 | 0.0 | 0.00 | 0.86 | 0.03 | 99 | 1011.9 |
| 20260509184505 | 10 | 0 | 0.0 | 0.0 | 0.00 | 0.86 | 0.03 | 99 | 1011.9 |
| 20260509184204 | 10 | 0 | 0.0 | 0.0 | 0.00 | 0.86 | 0.03 | 99 | 1011.9 |
| 20260509183903 | 10 | 0 | 0.0 | 0.0 | 0.00 | 0.86 | 0.03 | 99 | 1011.9 |
| 20260509183604 | 10 | 0 | 0.0 | 0.0 | 0.00 | 0.86 | 0.03 | 99 | 1011.9 |
| 20260509183303 | 10 | 0 | 0.0 | 0.0 | 0.00 | 0.86 | 0.03 | 99 | 1011.8 |
| 20260509183005 | 10 | 0 | 0.0 | 0.0 | 0.00 | 0.86 | 0.03 | 99 | 1011.6 |
| 20260509182704 | 10 | 0 | 0.0 | 0.0 | 0.00 | 0.86 | 0.03 | 99 | 1011.8 |
| 20260509182404 | 10 | 0 | 0.0 | 0.0 | 0.00 | 0.86 | 0.03 | 99 | 1011.9 |
| 20260509181806 | 10 | 0 | 0.0 | 0.0 | 0.00 | 0.86 | 0.03 | 99 | 1011.7 |
| 20260509181204 | 10 | 0 | 0.0 | 0.0 | 0.00 | 0.86 | 0.03 | 99 | 1011.8 |
| 20260509180904 | 10 | 0 | 0.0 | 0.0 | 0.00 | 0.86 | 0.03 | 99 | 1011.8 |
| 20260509180304 | 10 | 0 | 0.0 | 0.0 | 0.00 | 0.86 | 0.03 | 99 | 1011.9 |
| 20260509180005 | 9 | 0 | 0.0 | 0.0 | 0.00 | 0.86 | 0.03 | 99 | 1011.8 |
| 20260509175703 | 9 | 0 | 0.0 | 0.0 | 0.00 | 0.86 | 0.03 | 99 | 1011.8 |
| 20260509175404 | 9 | 0 | 0.0 | 0.0 | 0.00 | 0.86 | 0.03 | 99 | 1011.8 |
| 20260509175104 | 9 | 0 | 0.0 | 0.0 | 0.00 | 0.86 | 0.03 | 99 | 1011.8 |
| 20260509174804 | 9 | 0 | 0.0 | 0.0 | 0.00 | 0.86 | 0.03 | 99 | 1011.6 |
| 20260509174504 | 9 | 0 | 0.0 | 0.0 | 0.00 | 0.86 | 0.03 | 99 | 1011.8 |
| 20260509174204 | 9 | 0 | 0.0 | 0.0 | 0.00 | 0.86 | 0.03 | 99 | 1011.7 |
| 20260509173903 | 9 | 0 | 0.0 | 0.0 | 0.00 | 0.86 | 0.03 | 99 | 1011.7 |
| 20260509173604 | 9 | 0 | 0.0 | 0.0 | 0.00 | 0.86 | 0.03 | 99 | 1011.9 |
| 20260509173303 | 9 | 0 | 0.0 | 0.0 | 0.00 | 0.86 | 0.03 | 99 | 1011.9 |
| 20260509173004 | 9 | 0 | 0.0 | 0.0 | 0.00 | 0.86 | 0.03 | 99 | 1011.7 |
| 20260509172704 | 9 | 0 | 0.0 | 0.0 | 0.00 | 0.86 | 0.03 | 99 | 1011.7 |
| 20260509172403 | 9 | 0 | 0.0 | 0.0 | 0.00 | 0.86 | 0.03 | 99 | 1011.6 |
| 20260509172104 | 9 | 0 | 0.0 | 0.0 | 0.00 | 0.86 | 0.03 | 99 | 1011.6 |
| 20260509171803 | 9 | 0 | 0.0 | 0.0 | 0.00 | 0.86 | 0.03 | 99 | 1011.7 |
| 20260509171504 | 9 | 0 | 0.0 | 0.0 | 0.00 | 0.86 | 0.03 | 99 | 1011.5 |
| 20260509171203 | 9 | 0 | 0.0 | 0.0 | 0.00 | 0.86 | 0.03 | 99 | 1011.6 |
| 20260509170907 | 9 | 0 | 0.0 | 0.0 | 0.00 | 0.86 | 0.03 | 99 | 1011.9 |
| 20260509170603 | 9 | 0 | 0.0 | 0.0 | 0.00 | 0.86 | 0.03 | 99 | 1011.8 |
| 20260509170304 | 9 | 348 | 0.0 | 3.2 | 0.03 | 0.86 | 0.03 | 99 | 1011.7 |
| 20260509170006 | 9 | 26 | 0.0 | 4.8 | 0.03 | 0.86 | 0.03 | 99 | 1011.8 |
| 20260509165704 | 9 | 26 | 0.0 | 4.8 | 0.03 | 0.86 | 0.03 | 99 | 1011.8 |
| 20260509165404 | 9 | 26 | 0.0 | 4.8 | 0.03 | 0.86 | 0.03 | 99 | 1011.7 |
| 20260509165103 | 9 | 314 | 1.6 | 3.2 | 0.03 | 0.86 | 0.03 | 99 | 1011.7 |
| 20260509164804 | 9 | 0 | 0.0 | 0.0 | 0.03 | 0.86 | 0.03 | 99 | 1011.5 |
| 20260509164503 | 9 | 0 | 0.0 | 0.0 | 0.03 | 0.86 | 0.03 | 99 | 1011.4 |
| 20260509164203 | 9 | 0 | 0.0 | 0.0 | 0.03 | 0.86 | 0.03 | 99 | 1011.6 |
| 20260509163604 | 9 | 0 | 0.0 | 0.0 | 0.03 | 0.86 | 0.03 | 99 | 1011.6 |
| 20260509163304 | 9 | 0 | 0.0 | 0.0 | 0.03 | 0.86 | 0.03 | 99 | 1011.4 |
| 20260509163004 | 9 | 0 | 0.0 | 0.0 | 0.03 | 0.86 | 0.03 | 99 | 1011.4 |
| 20260509162704 | 9 | 0 | 0.0 | 0.0 | 0.03 | 0.86 | 0.03 | 99 | 1011.7 |
| 20260509162104 | 9 | 0 | 0.0 | 0.0 | 0.03 | 0.86 | 0.03 | 99 | 1011.8 |
| 20260509161803 | 9 | 0 | 0.0 | 0.0 | 0.03 | 0.86 | 0.03 | 99 | 1011.8 |
| 20260509161504 | 9 | 0 | 0.0 | 0.0 | 0.03 | 0.86 | 0.03 | 99 | 1011.8 |
| 20260509161203 | 9 | 0 | 0.0 | 0.0 | 0.03 | 0.86 | 0.03 | 99 | 1011.9 |
| 20260509160904 | 9 | 0 | 0.0 | 0.0 | 0.03 | 0.86 | 0.03 | 99 | 1011.9 |
| 20260509160604 | 9 | 0 | 0.0 | 0.0 | 0.03 | 0.86 | 0.03 | 99 | 1011.6 |
| 20260509160304 | 9 | 1 | 0.0 | 1.6 | 0.00 | 0.84 | 0.00 | 99 | 1011.7 |
| 20260509160004 | 9 | 1 | 0.0 | 1.6 | 0.00 | 0.84 | 0.00 | 99 | 1011.7 |
| 20260509155704 | 9 | 1 | 0.0 | 1.6 | 0.00 | 0.84 | 0.00 | 99 | 1011.7 |
| 20260509155404 | 9 | 0 | 0.0 | 0.0 | 0.00 | 0.84 | 0.00 | 99 | 1011.7 |
| 20260509155103 | 9 | 0 | 0.0 | 0.0 | 0.00 | 0.84 | 0.00 | 99 | 1011.6 |
| 20260509154504 | 10 | 0 | 0.0 | 0.0 | 0.00 | 0.84 | 0.00 | 99 | 1011.6 |
| 20260509154203 | 10 | 0 | 0.0 | 0.0 | 0.00 | 0.84 | 0.00 | 99 | 1011.7 |
| 20260509153905 | 10 | 0 | 0.0 | 0.0 | 0.00 | 0.84 | 0.00 | 99 | 1011.5 |
| 20260509153604 | 10 | 0 | 0.0 | 0.0 | 0.00 | 0.84 | 0.00 | 99 | 1011.5 |
| 20260509153306 | 10 | 0 | 0.0 | 0.0 | 0.00 | 0.84 | 0.00 | 99 | 1011.5 |
| 20260509153004 | 10 | 0 | 0.0 | 0.0 | 0.00 | 0.84 | 0.00 | 99 | 1011.6 |
| 20260509152405 | 10 | 0 | 0.0 | 0.0 | 0.00 | 0.84 | 0.00 | 99 | 1011.5 |
| 20260509152106 | 10 | 0 | 0.0 | 0.0 | 0.00 | 0.84 | 0.00 | 99 | 1011.5 |
| 20260509151805 | 10 | 0 | 0.0 | 0.0 | 0.00 | 0.84 | 0.00 | 99 | 1011.5 |
| 20260509151504 | 10 | 0 | 0.0 | 0.0 | 0.00 | 0.84 | 0.00 | 99 | 1011.5 |
| 20260509151204 | 10 | 0 | 0.0 | 0.0 | 0.00 | 0.84 | 0.00 | 99 | 1011.7 |
| 20260509150904 | 10 | 0 | 0.0 | 0.0 | 0.00 | 0.84 | 0.00 | 99 | 1011.8 |
| 20260509150603 | 10 | 0 | 0.0 | 0.0 | 0.00 | 0.84 | 0.00 | 99 | 1011.8 |
| 20260509150305 | 10 | 0 | 0.0 | 0.0 | 0.00 | 0.84 | 0.00 | 99 | 1011.6 |
| 20260509150003 | 10 | 0 | 0.0 | 0.0 | 0.00 | 0.84 | 0.00 | 99 | 1011.8 |
| 20260509145704 | 10 | 0 | 0.0 | 0.0 | 0.00 | 0.84 | 0.00 | 99 | 1011.8 |
| 20260509145403 | 10 | 0 | 0.0 | 0.0 | 0.00 | 0.84 | 0.00 | 99 | 1012.0 |
| 20260509145104 | 10 | 0 | 0.0 | 0.0 | 0.00 | 0.84 | 0.00 | 99 | 1012.1 |
| 20260509144504 | 10 | 0 | 0.0 | 0.0 | 0.00 | 0.84 | 0.00 | 99 | 1012.0 |
| 20260509144204 | 10 | 0 | 0.0 | 0.0 | 0.00 | 0.84 | 0.00 | 99 | 1012.0 |
| 20260509143904 | 10 | 0 | 0.0 | 0.0 | 0.00 | 0.84 | 0.00 | 99 | 1012.0 |
| 20260509143304 | 10 | 0 | 0.0 | 0.0 | 0.00 | 0.84 | 0.00 | 99 | 1012.1 |
| 20260509143005 | 10 | 0 | 0.0 | 0.0 | 0.00 | 0.84 | 0.00 | 99 | 1012.0 |
| 20260509142703 | 10 | 0 | 0.0 | 0.0 | 0.00 | 0.84 | 0.00 | 99 | 1012.1 |
| 20260509141803 | 10 | 0 | 0.0 | 0.0 | 0.00 | 0.84 | 0.00 | 99 | 1011.9 |
| 20260509141504 | 10 | 0 | 0.0 | 0.0 | 0.00 | 0.84 | 0.00 | 99 | 1012.0 |
| 20260509140904 | 10 | 0 | 0.0 | 0.0 | 0.00 | 0.84 | 0.00 | 99 | 1012.2 |
| 20260509140604 | 10 | 181 | 0.0 | 1.6 | 0.00 | 0.84 | 0.00 | 99 | 1012.3 |
| 20260509140304 | 10 | 225 | 0.0 | 1.6 | 0.00 | 0.84 | 0.00 | 99 | 1012.2 |
| 20260509140005 | 10 | 225 | 0.0 | 1.6 | 0.00 | 0.84 | 0.00 | 99 | 1012.2 |
| 20260509135705 | 10 | 225 | 0.0 | 1.6 | 0.00 | 0.84 | 0.00 | 99 | 1012.3 |
| 20260509135404 | 10 | 0 | 0.0 | 0.0 | 0.00 | 0.84 | 0.00 | 99 | 1012.3 |
| 20260509135105 | 10 | 0 | 0.0 | 0.0 | 0.00 | 0.84 | 0.00 | 99 | 1012.3 |
| 20260509134805 | 10 | 0 | 0.0 | 0.0 | 0.00 | 0.84 | 0.00 | 99 | 1012.3 |
| 20260509134504 | 10 | 0 | 0.0 | 0.0 | 0.00 | 0.84 | 0.00 | 99 | 1012.3 |
| 20260509134204 | 10 | 0 | 0.0 | 0.0 | 0.00 | 0.84 | 0.00 | 99 | 1012.3 |
| 20260509133904 | 10 | 0 | 0.0 | 0.0 | 0.00 | 0.84 | 0.00 | 99 | 1012.2 |
| 20260509133604 | 10 | 0 | 0.0 | 0.0 | 0.00 | 0.84 | 0.00 | 99 | 1012.4 |
| 20260509133306 | 10 | 0 | 0.0 | 0.0 | 0.00 | 0.84 | 0.00 | 99 | 1012.5 |
| 20260509133004 | 10 | 0 | 0.0 | 0.0 | 0.00 | 0.84 | 0.00 | 99 | 1012.4 |
| 20260509132704 | 10 | 0 | 0.0 | 0.0 | 0.00 | 0.84 | 0.00 | 99 | 1012.4 |
| 20260509132404 | 10 | 0 | 0.0 | 0.0 | 0.00 | 0.84 | 0.00 | 99 | 1012.5 |
| 20260509131804 | 10 | 0 | 0.0 | 0.0 | 0.00 | 0.84 | 0.00 | 99 | 1012.4 |
| 20260509131204 | 10 | 0 | 0.0 | 0.0 | 0.00 | 0.84 | 0.00 | 99 | 1012.5 |
| 20260509130903 | 10 | 0 | 0.0 | 0.0 | 0.00 | 0.84 | 0.00 | 99 | 1012.6 |
| 20260509130604 | 10 | 0 | 0.0 | 0.0 | 0.00 | 0.84 | 0.00 | 99 | 1012.4 |
| 20260509130004 | 10 | 0 | 0.0 | 0.0 | 0.00 | 0.84 | 0.00 | 99 | 1012.4 |
| 20260509125704 | 10 | 0 | 0.0 | 0.0 | 0.00 | 0.84 | 0.00 | 99 | 1012.5 |
| 20260509125104 | 10 | 0 | 0.0 | 0.0 | 0.00 | 0.84 | 0.00 | 99 | 1012.5 |
| 20260509124804 | 10 | 0 | 0.0 | 0.0 | 0.00 | 0.84 | 0.00 | 99 | 1012.5 |
| 20260509124503 | 10 | 0 | 0.0 | 0.0 | 0.00 | 0.84 | 0.00 | 99 | 1012.5 |
| 20260509124204 | 10 | 0 | 0.0 | 0.0 | 0.00 | 0.84 | 0.00 | 99 | 1012.5 |
| 20260509123906 | 10 | 0 | 0.0 | 0.0 | 0.00 | 0.84 | 0.00 | 99 | 1012.5 |
| 20260509123603 | 10 | 0 | 0.0 | 0.0 | 0.00 | 0.86 | 0.00 | 99 | 1012.5 |
| 20260509122403 | 10 | 1 | 0.0 | 1.6 | 0.00 | 0.86 | 0.00 | 99 | 1012.6 |
| 20260509122104 | 10 | 1 | 0.0 | 1.6 | 0.00 | 0.86 | 0.00 | 99 | 1012.6 |
| 20260509121504 | 10 | 0 | 0.0 | 0.0 | 0.00 | 0.89 | 0.00 | 99 | 1012.5 |
| 20260509121204 | 10 | 0 | 0.0 | 0.0 | 0.00 | 0.94 | 0.00 | 99 | 1012.6 |
| 20260509120904 | 10 | 0 | 0.0 | 0.0 | 0.00 | 0.94 | 0.00 | 99 | 1012.7 |
| 20260509120603 | 10 | 0 | 0.0 | 0.0 | 0.00 | 0.97 | 0.00 | 99 | 1012.6 |
| 20260509120304 | 10 | 0 | 0.0 | 0.0 | 0.00 | 1.09 | 0.00 | 99 | 1012.6 |
| 20260509120005 | 10 | 1 | 0.0 | 1.6 | 0.00 | 1.22 | 0.00 | 99 | 1012.5 |
| 20260509115405 | 10 | 11 | 0.0 | 3.2 | 0.00 | 1.30 | 1.22 | 99 | 1012.6 |
| 20260509115104 | 10 | 12 | 0.0 | 3.2 | 0.00 | 1.30 | 1.22 | 99 | 1012.6 |
| 20260509114804 | 10 | 14 | 0.0 | 3.2 | 0.00 | 1.32 | 1.22 | 99 | 1012.7 |
| 20260509114504 | 10 | 314 | 0.0 | 1.6 | 0.00 | 1.32 | 1.22 | 99 | 1012.6 |
| 20260509114204 | 10 | 265 | 0.0 | 3.2 | 0.00 | 1.35 | 1.22 | 99 | 1012.5 |
| 20260509113903 | 10 | 253 | 0.0 | 3.2 | 0.00 | 1.37 | 1.22 | 99 | 1012.5 |
| 20260509113605 | 10 | 262 | 0.0 | 3.2 | 0.00 | 1.42 | 1.22 | 99 | 1012.5 |
| 20260509113304 | 10 | 264 | 0.0 | 3.2 | 0.00 | 1.45 | 1.22 | 99 | 1012.4 |
| 20260509113004 | 10 | 270 | 1.6 | 3.2 | 0.00 | 1.45 | 1.22 | 99 | 1012.4 |
| 20260509112704 | 10 | 278 | 0.0 | 1.6 | 0.00 | 1.47 | 1.22 | 99 | 1012.4 |
| 20260509112104 | 10 | 248 | 0.0 | 1.6 | 0.00 | 1.50 | 1.22 | 99 | 1012.3 |
| 20260509111804 | 10 | 135 | 0.0 | 1.6 | 0.00 | 1.52 | 1.22 | 99 | 1012.4 |
| 20260509111504 | 10 | 135 | 0.0 | 1.6 | 0.00 | 1.52 | 1.22 | 99 | 1012.2 |
| 20260509111204 | 10 | 142 | 0.0 | 1.6 | 0.00 | 1.55 | 1.22 | 99 | 1012.3 |
| 20260509110904 | 10 | 147 | 0.0 | 1.6 | 0.00 | 1.60 | 1.22 | 99 | 1012.5 |
| 20260509110604 | 10 | 163 | 0.0 | 1.6 | 0.00 | 1.63 | 1.22 | 99 | 1012.3 |
| 20260509110304 | 10 | 181 | 0.0 | 1.6 | 0.00 | 1.63 | 1.22 | 99 | 1012.4 |
| 20260509110004 | 10 | 0 | 0.0 | 0.0 | 0.00 | 1.65 | 1.22 | 99 | 1012.4 |
| 20260509105704 | 10 | 0 | 0.0 | 0.0 | 0.00 | 1.68 | 1.22 | 99 | 1012.4 |
| 20260509105403 | 11 | 181 | 0.0 | 1.6 | 0.00 | 1.70 | 1.22 | 99 | 1012.4 |
| 20260509104803 | 11 | 64 | 0.0 | 3.2 | 0.00 | 1.78 | 1.22 | 98 | 1012.4 |
| 20260509104504 | 11 | 50 | 0.0 | 3.2 | 0.00 | 1.80 | 1.22 | 98 | 1012.5 |
| 20260509104203 | 11 | 45 | 0.0 | 3.2 | 0.00 | 1.83 | 1.22 | 98 | 1012.5 |
| 20260509103904 | 11 | 31 | 0.0 | 3.2 | 0.00 | 1.85 | 1.22 | 98 | 1012.4 |
| 20260509103605 | 11 | 6 | 0.0 | 1.6 | 0.00 | 1.85 | 1.22 | 98 | 1012.5 |
| 20260509103304 | 11 | 1 | 0.0 | 3.2 | 0.00 | 1.93 | 1.22 | 98 | 1012.5 |
| 20260509103003 | 11 | 1 | 0.0 | 3.2 | 0.00 | 1.93 | 1.22 | 98 | 1012.6 |
| 20260509102707 | 11 | 1 | 0.0 | 3.2 | 0.00 | 1.93 | 1.22 | 98 | 1012.7 |
| 20260509102404 | 11 | 1 | 0.0 | 3.2 | 0.00 | 1.93 | 1.22 | 98 | 1012.6 |
| 20260509102104 | 11 | 0 | 0.0 | 0.0 | 0.00 | 1.96 | 1.22 | 98 | 1012.6 |
| 20260509101504 | 11 | 135 | 0.0 | 1.6 | 0.00 | 2.01 | 1.22 | 98 | 1012.6 |
| 20260509100904 | 12 | 0 | 0.0 | 0.0 | 0.00 | 2.11 | 1.22 | 97 | 1012.5 |
| 20260509100603 | 12 | 0 | 0.0 | 0.0 | 0.00 | 2.11 | 1.22 | 97 | 1012.5 |
| 20260509100304 | 12 | 0 | 0.0 | 0.0 | 0.00 | 2.16 | 1.22 | 97 | 1012.6 |
| 20260509100005 | 12 | 0 | 0.0 | 0.0 | 0.00 | 2.21 | 1.22 | 97 | 1012.5 |
| 20260509095704 | 12 | 0 | 0.0 | 0.0 | 0.00 | 2.29 | 1.22 | 97 | 1012.6 |
| 20260509095406 | 12 | 0 | 0.0 | 0.0 | 0.00 | 2.29 | 1.22 | 97 | 1012.5 |
| 20260509095105 | 12 | 248 | 0.0 | 1.6 | 0.00 | 2.29 | 1.22 | 97 | 1012.6 |
| 20260509094803 | 12 | 192 | 0.0 | 1.6 | 0.00 | 2.29 | 1.22 | 97 | 1012.4 |
| 20260509094203 | 12 | 154 | 0.0 | 3.2 | 0.00 | 2.29 | 1.22 | 97 | 1012.4 |
| 20260509093604 | 12 | 147 | 0.0 | 3.2 | 0.00 | 2.29 | 1.22 | 97 | 1012.4 |
| 20260509093304 | 12 | 0 | 0.0 | 0.0 | 0.00 | 2.29 | 1.22 | 97 | 1012.3 |
| 20260509093006 | 12 | 0 | 0.0 | 0.0 | 0.00 | 2.29 | 1.22 | 97 | 1012.3 |
| 20260509092704 | 12 | 0 | 0.0 | 0.0 | 0.00 | 2.34 | 1.22 | 97 | 1012.3 |
| 20260509092403 | 12 | 0 | 0.0 | 0.0 | 0.00 | 2.36 | 1.22 | 97 | 1012.3 |
| 20260509092106 | 12 | 0 | 0.0 | 0.0 | 0.00 | 2.36 | 1.22 | 97 | 1012.2 |
| 20260509091804 | 12 | 0 | 0.0 | 0.0 | 0.03 | 2.36 | 1.22 | 97 | 1012.4 |
| 20260509091204 | 12 | 181 | 0.0 | 3.2 | 0.18 | 2.36 | 1.22 | 97 | 1012.4 |
| 20260509090604 | 12 | 181 | 0.0 | 3.2 | 0.18 | 2.36 | 1.22 | 97 | 1012.2 |
| 20260509090005 | 12 | 231 | 0.0 | 3.2 | 0.18 | 2.39 | 1.22 | 97 | 1012.2 |
| 20260509085704 | 12 | 260 | 0.0 | 3.2 | 0.18 | 2.39 | 1.22 | 97 | 1012.1 |
| 20260509085404 | 12 | 274 | 0.0 | 4.8 | 0.18 | 2.39 | 1.22 | 97 | 1012.3 |
| 20260509085103 | 12 | 278 | 0.0 | 4.8 | 0.18 | 2.39 | 1.22 | 97 | 1012.2 |
| 20260509084804 | 12 | 272 | 3.2 | 4.8 | 0.18 | 2.44 | 1.22 | 97 | 1012.3 |
| 20260509084504 | 12 | 272 | 1.6 | 6.4 | 0.18 | 2.44 | 1.22 | 97 | 1012.1 |
| 20260509083903 | 12 | 249 | 1.6 | 6.4 | 0.18 | 2.49 | 1.22 | 97 | 1012.2 |
| 20260509083604 | 12 | 231 | 3.2 | 8.0 | 0.18 | 2.51 | 1.22 | 97 | 1012.1 |
| 20260509083004 | 12 | 186 | 3.2 | 8.0 | 0.18 | 2.51 | 1.22 | 97 | 1012.2 |
| 20260509082703 | 12 | 160 | 3.2 | 14.5 | 0.18 | 2.51 | 1.22 | 97 | 1012.2 |
| 20260509081804 | 12 | 136 | 4.8 | 16.1 | 0.10 | 2.46 | 1.17 | 97 | 1012.1 |
| 20260509081504 | 12 | 140 | 11.3 | 16.1 | 0.00 | 2.36 | 1.04 | 97 | 1012.1 |
| 20260509081206 | 12 | 135 | 6.4 | 6.4 | 0.00 | 2.36 | 1.04 | 97 | 1012.1 |
| 20260509080904 | 12 | 0 | 0.0 | 0.0 | 0.00 | 2.36 | 1.04 | 97 | 1012.0 |
| 20260509080604 | 12 | 0 | 0.0 | 0.0 | 0.00 | 2.36 | 1.04 | 97 | 1012.1 |
| 20260509080304 | 12 | 0 | 0.0 | 0.0 | 0.00 | 2.36 | 1.04 | 97 | 1012.1 |
| 20260509080005 | 12 | 0 | 0.0 | 0.0 | 0.00 | 2.36 | 1.04 | 97 | 1012.2 |
| 20260509075704 | 12 | 0 | 0.0 | 0.0 | 0.00 | 2.36 | 1.04 | 97 | 1012.1 |
| 20260509075404 | 12 | 0 | 0.0 | 0.0 | 0.00 | 2.36 | 1.04 | 97 | 1012.0 |
| 20260509075103 | 12 | 0 | 0.0 | 0.0 | 0.00 | 2.36 | 1.04 | 97 | 1012.2 |
| 20260509074804 | 12 | 0 | 0.0 | 0.0 | 0.00 | 2.36 | 1.04 | 97 | 1012.1 |
| 20260509074504 | 12 | 0 | 0.0 | 0.0 | 0.00 | 2.36 | 1.04 | 97 | 1012.0 |
| 20260509074204 | 12 | 0 | 0.0 | 0.0 | 0.00 | 2.36 | 1.04 | 97 | 1012.0 |
| 20260509073904 | 12 | 0 | 0.0 | 0.0 | 0.00 | 2.36 | 1.04 | 97 | 1011.8 |
| 20260509073304 | 12 | 0 | 0.0 | 0.0 | 0.00 | 2.36 | 1.04 | 97 | 1011.8 |
| 20260509072704 | 12 | 0 | 0.0 | 0.0 | 0.00 | 2.36 | 1.04 | 97 | 1011.8 |
| 20260509072404 | 12 | 0 | 0.0 | 0.0 | 0.00 | 2.36 | 1.04 | 97 | 1011.8 |
| 20260509072103 | 12 | 0 | 0.0 | 0.0 | 0.00 | 2.36 | 1.04 | 96 | 1011.8 |
| 20260509071505 | 12 | 0 | 0.0 | 0.0 | 0.00 | 2.36 | 1.04 | 96 | 1011.8 |
| 20260509071204 | 12 | 0 | 0.0 | 0.0 | 0.00 | 2.36 | 1.04 | 96 | 1011.9 |
| 20260509070903 | 12 | 0 | 0.0 | 0.0 | 0.00 | 2.36 | 1.04 | 96 | 1011.8 |
| 20260509070603 | 12 | 0 | 0.0 | 0.0 | 0.00 | 2.36 | 1.04 | 96 | 1011.7 |
| 20260509070305 | 12 | 0 | 0.0 | 0.0 | 0.00 | 2.39 | 1.04 | 96 | 1011.7 |
| 20260509070003 | 12 | 0 | 0.0 | 0.0 | 0.00 | 2.39 | 1.04 | 95 | 1012.0 |
| 20260509065704 | 12 | 0 | 0.0 | 0.0 | 0.00 | 2.39 | 1.04 | 95 | 1011.8 |
| 20260509065103 | 12 | 0 | 0.0 | 0.0 | 0.00 | 2.39 | 1.04 | 95 | 1011.7 |
| 20260509064505 | 12 | 0 | 0.0 | 0.0 | 0.00 | 2.39 | 1.04 | 94 | 1011.8 |
| 20260509064204 | 12 | 0 | 0.0 | 0.0 | 0.00 | 2.39 | 1.04 | 94 | 1011.9 |
| 20260509063604 | 12 | 0 | 0.0 | 0.0 | 0.00 | 2.39 | 1.04 | 94 | 1011.6 |
| 20260509063303 | 12 | 0 | 0.0 | 0.0 | 0.00 | 2.39 | 1.04 | 94 | 1011.6 |
| 20260509063004 | 12 | 0 | 0.0 | 0.0 | 0.00 | 2.39 | 1.04 | 94 | 1011.5 |
| 20260509062704 | 12 | 0 | 0.0 | 0.0 | 0.00 | 2.39 | 1.04 | 95 | 1011.4 |
| 20260509062403 | 13 | 0 | 0.0 | 0.0 | 0.00 | 2.39 | 1.04 | 95 | 1011.4 |
| 20260509062104 | 13 | 0 | 0.0 | 0.0 | 0.00 | 2.39 | 1.04 | 94 | 1011.4 |
| 20260509061803 | 13 | 0 | 0.0 | 0.0 | 0.00 | 2.39 | 1.04 | 94 | 1011.3 |
| 20260509061505 | 13 | 0 | 0.0 | 0.0 | 0.00 | 2.39 | 1.04 | 94 | 1011.5 |